| time (UTC) | temp F | wind direction | speed MPH | gust MPH | rain 1hr in | rain 24hr in | rain mn in | humidity % | barometer mb |
| 20260510231058 | 79 | 15 | 1.0 | 6.0 | 0.00 | 0.00 | 0.00 | 27 | 1022.3 |
| 20260510230601 | 79 | 15 | 1.0 | 7.0 | 0.00 | 0.00 | 0.00 | 29 | 1022.2 |
| 20260510230101 | 79 | 14 | 2.0 | 7.0 | 0.00 | 0.00 | 0.00 | 29 | 1022.2 |
| 20260510225557 | 79 | 15 | 2.0 | 9.0 | 0.00 | 0.00 | 0.00 | 29 | 1022.2 |
| 20260510225100 | 79 | 15 | 2.0 | 9.0 | 0.00 | 0.00 | 0.00 | 27 | 1022.3 |
| 20260510224610 | 79 | 15 | 2.0 | 9.0 | 0.00 | 0.00 | 0.00 | 26 | 1022.2 |
| 20260510224057 | 79 | 14 | 1.0 | 5.0 | 0.00 | 0.00 | 0.00 | 28 | 1022.3 |
| 20260510223557 | 78 | 15 | 1.0 | 6.0 | 0.00 | 0.00 | 0.00 | 28 | 1022.3 |
| 20260510223058 | 77 | 16 | 2.0 | 7.0 | 0.00 | 0.00 | 0.00 | 28 | 1022.3 |
| 20260510222557 | 78 | 15 | 2.0 | 9.0 | 0.00 | 0.00 | 0.00 | 27 | 1022.4 |
| 20260510222056 | 78 | 16 | 2.0 | 9.0 | 0.00 | 0.00 | 0.00 | 27 | 1022.6 |
| 20260510221601 | 78 | 15 | 2.0 | 9.0 | 0.00 | 0.00 | 0.00 | 27 | 1022.5 |
| 20260510221057 | 78 | 16 | 2.0 | 8.0 | 0.00 | 0.00 | 0.00 | 29 | 1022.5 |
| 20260510220557 | 78 | 15 | 3.0 | 8.0 | 0.00 | 0.00 | 0.00 | 28 | 1022.6 |
| 20260510215556 | 78 | 15 | 1.0 | 5.0 | 0.00 | 0.00 | 0.00 | 30 | 1022.8 |
| 20260510215058 | 77 | 5 | 1.0 | 4.0 | 0.00 | 0.00 | 0.00 | 30 | 1022.8 |
| 20260510214555 | 76 | 15 | 1.0 | 7.0 | 0.00 | 0.00 | 0.00 | 38 | 1022.8 |
| 20260510214057 | 76 | 15 | 1.0 | 7.0 | 0.00 | 0.00 | 0.00 | 30 | 1022.8 |
| 20260510213556 | 76 | 13 | 1.0 | 4.0 | 0.00 | 0.00 | 0.00 | 27 | 1022.9 |
| 20260510213117 | 75 | 15 | 1.0 | 7.0 | 0.00 | 0.00 | 0.00 | 33 | 1022.8 |
| 20260510212557 | 74 | 13 | 1.0 | 7.0 | 0.00 | 0.00 | 0.00 | 38 | 1022.8 |
| 20260510212057 | 75 | 15 | 1.0 | 4.0 | 0.00 | 0.00 | 0.00 | 42 | 1022.9 |
| 20260510211600 | 75 | 13 | 1.0 | 4.0 | 0.00 | 0.00 | 0.00 | 43 | 1022.8 |
| 20260510211056 | 74 | 14 | 1.0 | 3.0 | 0.00 | 0.00 | 0.00 | 43 | 1022.8 |
| 20260510210601 | 74 | 14 | 1.0 | 4.0 | 0.00 | 0.00 | 0.00 | 43 | 1022.8 |
| 20260510210056 | 72 | 13 | 1.0 | 5.0 | 0.00 | 0.00 | 0.00 | 45 | 1022.9 |
| 20260510205556 | 71 | 14 | 1.0 | 5.0 | 0.00 | 0.00 | 0.00 | 40 | 1022.9 |
| 20260510205057 | 71 | 360 | 1.0 | 5.0 | 0.00 | 0.00 | 0.00 | 45 | 1022.8 |
| 20260510204617 | 71 | 360 | 1.0 | 4.0 | 0.00 | 0.00 | 0.00 | 45 | 1022.9 |
| 20260510204100 | 71 | 13 | 1.0 | 3.0 | 0.00 | 0.00 | 0.00 | 45 | 1023.0 |
| 20260510203557 | 71 | 15 | 1.0 | 4.0 | 0.00 | 0.00 | 0.00 | 46 | 1022.9 |
| 20260510203057 | 71 | 360 | 2.0 | 4.0 | 0.00 | 0.00 | 0.00 | 44 | 1023.0 |
| 20260510202556 | 72 | 13 | 1.0 | 4.0 | 0.00 | 0.00 | 0.00 | 44 | 1023.0 |
| 20260510202058 | 72 | 13 | 1.0 | 4.0 | 0.00 | 0.00 | 0.00 | 43 | 1022.8 |
| 20260510201602 | 73 | 15 | 1.0 | 3.0 | 0.00 | 0.00 | 0.00 | 41 | 1023.0 |
| 20260510201057 | 72 | 0 | 1.0 | 4.0 | 0.00 | 0.00 | 0.00 | 39 | 1022.8 |
| 20260510200557 | 72 | 15 | 1.0 | 4.0 | 0.00 | 0.00 | 0.00 | 37 | 1022.9 |
| 20260510200058 | 72 | 13 | 1.0 | 4.0 | 0.00 | 0.00 | 0.00 | 39 | 1023.0 |
| 20260510195556 | 71 | 13 | 1.0 | 4.0 | 0.00 | 0.00 | 0.00 | 38 | 1023.0 |
| 20260510195056 | 71 | 13 | 1.0 | 4.0 | 0.00 | 0.00 | 0.00 | 39 | 1023.0 |
| 20260510194610 | 71 | 15 | 1.0 | 3.0 | 0.00 | 0.00 | 0.00 | 38 | 1023.1 |
| 20260510194057 | 70 | 15 | 0.0 | 3.0 | 0.00 | 0.00 | 0.00 | 39 | 1023.1 |
| 20260510193557 | 69 | 14 | 0.0 | 3.0 | 0.00 | 0.00 | 0.00 | 36 | 1023.2 |
| 20260510193106 | 71 | 17 | 1.0 | 3.0 | 0.00 | 0.00 | 0.00 | 32 | 1023.2 |
| 20260510192557 | 71 | 13 | 1.0 | 3.0 | 0.00 | 0.00 | 0.00 | 33 | 1023.1 |
| 20260510192057 | 71 | 14 | 1.0 | 3.0 | 0.00 | 0.00 | 0.00 | 34 | 1023.2 |
| 20260510191559 | 71 | 0 | 1.0 | 3.0 | 0.00 | 0.00 | 0.00 | 32 | 1023.3 |
| 20260510191058 | 71 | 15 | 0.0 | 3.0 | 0.00 | 0.00 | 0.00 | 32 | 1023.2 |
| 20260510190557 | 70 | 15 | 1.0 | 3.0 | 0.00 | 0.00 | 0.00 | 36 | 1023.2 |
| 20260510190108 | 69 | 15 | 1.0 | 3.0 | 0.00 | 0.00 | 0.00 | 38 | 1023.2 |
| 20260510185557 | 68 | 15 | 0.0 | 3.0 | 0.00 | 0.00 | 0.00 | 36 | 1023.2 |
| 20260510185056 | 68 | 15 | 1.0 | 3.0 | 0.00 | 0.00 | 0.00 | 38 | 1023.3 |
| 20260510184607 | 67 | 13 | 1.0 | 3.0 | 0.00 | 0.00 | 0.00 | 40 | 1023.3 |
| 20260510184057 | 66 | 15 | 0.0 | 5.0 | 0.00 | 0.00 | 0.00 | 34 | 1023.2 |
| 20260510183557 | 66 | 14 | 1.0 | 5.0 | 0.00 | 0.00 | 0.00 | 34 | 1023.4 |
| 20260510183110 | 66 | 0 | 0.0 | 3.0 | 0.00 | 0.00 | 0.00 | 34 | 1023.4 |
| 20260510182556 | 65 | 15 | 0.0 | 3.0 | 0.00 | 0.00 | 0.00 | 36 | 1023.3 |
| 20260510182057 | 65 | 14 | 1.0 | 3.0 | 0.00 | 0.00 | 0.00 | 38 | 1023.4 |
| 20260510181615 | 65 | 0 | 0.0 | 3.0 | 0.00 | 0.00 | 0.00 | 36 | 1023.4 |
| 20260510181057 | 65 | 14 | 1.0 | 3.0 | 0.00 | 0.00 | 0.00 | 38 | 1023.2 |
| 20260510180558 | 64 | 13 | 1.0 | 3.0 | 0.00 | 0.00 | 0.00 | 41 | 1023.2 |
| 20260510180105 | 63 | 0 | 1.0 | 3.0 | 0.00 | 0.00 | 0.00 | 43 | 1023.3 |
| 20260510175557 | 63 | 13 | 1.0 | 4.0 | 0.00 | 0.00 | 0.00 | 44 | 1023.3 |
| 20260510175057 | 62 | 15 | 0.0 | 4.0 | 0.00 | 0.00 | 0.00 | 46 | 1023.4 |
| 20260510174623 | 62 | 16 | 1.0 | 4.0 | 0.00 | 0.00 | 0.00 | 46 | 1023.3 |
| 20260510174057 | 62 | 14 | 0.0 | 3.0 | 0.00 | 0.00 | 0.00 | 53 | 1023.2 |
| 20260510173558 | 62 | 13 | 0.0 | 4.0 | 0.00 | 0.00 | 0.00 | 49 | 1023.2 |
| 20260510173058 | 62 | 14 | 1.0 | 4.0 | 0.00 | 0.00 | 0.00 | 53 | 1023.2 |
| 20260510172601 | 61 | 13 | 0.0 | 3.0 | 0.00 | 0.00 | 0.00 | 56 | 1023.1 |
| 20260510172057 | 60 | 0 | 1.0 | 3.0 | 0.00 | 0.00 | 0.00 | 57 | 1023.1 |
| 20260510171621 | 59 | 15 | 1.0 | 3.0 | 0.00 | 0.00 | 0.00 | 57 | 1023.0 |
| 20260510171101 | 59 | 15 | 0.0 | 2.0 | 0.00 | 0.00 | 0.00 | 60 | 1023.0 |
| 20260510170558 | 58 | 0 | 0.0 | 2.0 | 0.00 | 0.00 | 0.00 | 60 | 1023.1 |
| 20260510170058 | 57 | 0 | 0.0 | 3.0 | 0.00 | 0.00 | 0.00 | 60 | 1023.1 |
| 20260510165600 | 56 | 15 | 0.0 | 3.0 | 0.00 | 0.00 | 0.00 | 63 | 1023.0 |
| 20260510165059 | 56 | 15 | 0.0 | 3.0 | 0.00 | 0.00 | 0.00 | 68 | 1023.0 |
| 20260510164602 | 55 | 15 | 0.0 | 3.0 | 0.00 | 0.00 | 0.00 | 67 | 1023.1 |
| 20260510164057 | 55 | 14 | 1.0 | 3.0 | 0.00 | 0.00 | 0.00 | 68 | 1023.2 |
| 20260510163557 | 55 | 0 | 0.0 | 3.0 | 0.00 | 0.00 | 0.00 | 68 | 1023.1 |
| 20260510163108 | 55 | 15 | 0.0 | 2.0 | 0.00 | 0.00 | 0.00 | 68 | 1023.1 |
| 20260510162557 | 55 | 0 | 0.0 | 2.0 | 0.00 | 0.00 | 0.00 | 68 | 1023.2 |
| 20260510162100 | 55 | 15 | 0.0 | 2.0 | 0.00 | 0.00 | 0.00 | 69 | 1023.2 |
| 20260510161556 | 55 | 15 | 0.0 | 2.0 | 0.00 | 0.00 | 0.00 | 69 | 1023.2 |
| 20260510161057 | 55 | 15 | 0.0 | 2.0 | 0.00 | 0.00 | 0.00 | 69 | 1023.2 |
| 20260510160558 | 55 | 0 | 0.0 | 2.0 | 0.00 | 0.00 | 0.00 | 68 | 1023.2 |
| 20260510160056 | 55 | 0 | 0.0 | 0.0 | 0.00 | 0.00 | 0.00 | 68 | 1023.1 |
| 20260510155557 | 54 | 0 | 0.0 | 0.0 | 0.00 | 0.00 | 0.00 | 69 | 1023.1 |
| 20260510155058 | 54 | 0 | 0.0 | 0.0 | 0.00 | 0.00 | 0.00 | 70 | 1023.1 |
| 20260510154600 | 53 | 0 | 0.0 | 0.0 | 0.00 | 0.00 | 0.00 | 67 | 1023.0 |
| 20260510154057 | 52 | 0 | 0.0 | 0.0 | 0.00 | 0.00 | 0.00 | 65 | 1022.9 |
| 20260510153559 | 51 | 0 | 0.0 | 0.0 | 0.00 | 0.00 | 0.00 | 61 | 1023.0 |
| 20260510153059 | 50 | 0 | 0.0 | 0.0 | 0.00 | 0.00 | 0.00 | 67 | 1023.0 |
| 20260510152557 | 49 | 0 | 0.0 | 0.0 | 0.00 | 0.00 | 0.00 | 69 | 1023.0 |
| 20260510152058 | 48 | 0 | 0.0 | 0.0 | 0.00 | 0.00 | 0.00 | 71 | 1023.0 |
| 20260510151557 | 48 | 0 | 0.0 | 0.0 | 0.00 | 0.00 | 0.00 | 72 | 1023.0 |
| 20260510151057 | 47 | 0 | 0.0 | 0.0 | 0.00 | 0.00 | 0.00 | 72 | 1023.0 |
| 20260510150557 | 47 | 0 | 0.0 | 0.0 | 0.00 | 0.00 | 0.00 | 71 | 1023.1 |
| 20260510150057 | 46 | 0 | 0.0 | 0.0 | 0.00 | 0.00 | 0.00 | 69 | 1023.0 |
| 20260510145557 | 46 | 0 | 0.0 | 0.0 | 0.00 | 0.00 | 0.00 | 70 | 1023.0 |
| 20260510145059 | 45 | 0 | 0.0 | 0.0 | 0.00 | 0.00 | 0.00 | 68 | 1022.9 |
| 20260510144612 | 45 | 0 | 0.0 | 0.0 | 0.00 | 0.00 | 0.00 | 66 | 1022.9 |
| 20260510144057 | 45 | 0 | 0.0 | 0.0 | 0.00 | 0.00 | 0.00 | 66 | 1022.8 |
| 20260510143557 | 44 | 0 | 0.0 | 0.0 | 0.00 | 0.00 | 0.00 | 67 | 1022.8 |
| 20260510143055 | 44 | 0 | 0.0 | 0.0 | 0.00 | 0.00 | 0.00 | 69 | 1023.0 |
| 20260510142554 | 44 | 0 | 0.0 | 0.0 | 0.00 | 0.00 | 0.00 | 69 | 1022.9 |
| 20260510142055 | 44 | 0 | 0.0 | 0.0 | 0.00 | 0.00 | 0.00 | 66 | 1022.9 |
| 20260510141554 | 44 | 0 | 0.0 | 0.0 | 0.00 | 0.00 | 0.00 | 66 | 1022.9 |
| 20260510141058 | 43 | 0 | 0.0 | 0.0 | 0.00 | 0.00 | 0.00 | 67 | 1022.8 |
| 20260510140557 | 43 | 0 | 0.0 | 1.0 | 0.00 | 0.00 | 0.00 | 65 | 1022.8 |
| 20260510140054 | 43 | 0 | 0.0 | 1.0 | 0.00 | 0.00 | 0.00 | 65 | 1022.8 |
| 20260510135555 | 43 | 0 | 0.0 | 2.0 | 0.00 | 0.00 | 0.00 | 63 | 1022.7 |
| 20260510135055 | 43 | 0 | 0.0 | 2.0 | 0.00 | 0.00 | 0.00 | 64 | 1022.6 |
| 20260510134556 | 43 | 0 | 0.0 | 1.0 | 0.00 | 0.00 | 0.00 | 61 | 1022.7 |
| 20260510134056 | 43 | 0 | 0.0 | 1.0 | 0.00 | 0.00 | 0.00 | 62 | 1022.5 |
| 20260510133558 | 43 | 0 | 0.0 | 1.0 | 0.00 | 0.00 | 0.00 | 61 | 1022.5 |
| 20260510133057 | 44 | 0 | 0.0 | 1.0 | 0.00 | 0.00 | 0.00 | 61 | 1022.4 |
| 20260510132555 | 44 | 0 | 0.0 | 0.0 | 0.00 | 0.00 | 0.00 | 57 | 1022.4 |
| 20260510132055 | 44 | 0 | 0.0 | 0.0 | 0.00 | 0.00 | 0.00 | 55 | 1022.5 |
| 20260510131556 | 44 | 0 | 0.0 | 0.0 | 0.00 | 0.00 | 0.00 | 53 | 1022.4 |
| 20260510131055 | 44 | 0 | 0.0 | 0.0 | 0.00 | 0.00 | 0.00 | 57 | 1022.5 |
| 20260510130556 | 44 | 0 | 0.0 | 0.0 | 0.00 | 0.00 | 0.00 | 59 | 1022.4 |
| 20260510130056 | 44 | 0 | 0.0 | 2.0 | 0.00 | 0.00 | 0.00 | 53 | 1022.5 |
| 20260510125556 | 44 | 0 | 0.0 | 2.0 | 0.00 | 0.00 | 0.00 | 55 | 1022.4 |
| 20260510125055 | 44 | 0 | 0.0 | 2.0 | 0.00 | 0.00 | 0.00 | 53 | 1022.5 |
| 20260510124602 | 44 | 108 | 0.0 | 2.0 | 0.00 | 0.00 | 0.00 | 55 | 1022.5 |
| 20260510124056 | 45 | 111 | 0.0 | 2.0 | 0.00 | 0.00 | 0.00 | 53 | 1022.6 |
| 20260510123555 | 45 | 61 | 0.0 | 2.0 | 0.00 | 0.00 | 0.00 | 52 | 1022.6 |
| 20260510123057 | 45 | 46 | 0.0 | 2.0 | 0.00 | 0.00 | 0.00 | 52 | 1022.7 |
| 20260510122555 | 45 | 88 | 0.0 | 2.0 | 0.00 | 0.00 | 0.00 | 52 | 1022.7 |
| 20260510122056 | 45 | 88 | 0.0 | 2.0 | 0.00 | 0.00 | 0.00 | 50 | 1022.6 |
| 20260510121555 | 45 | 90 | 0.0 | 2.0 | 0.00 | 0.00 | 0.00 | 54 | 1022.7 |
| 20260510121055 | 45 | 93 | 0.0 | 2.0 | 0.00 | 0.00 | 0.00 | 54 | 1022.7 |
| 20260510120555 | 45 | 96 | 0.0 | 2.0 | 0.00 | 0.00 | 0.00 | 53 | 1022.6 |
| 20260510120055 | 45 | 96 | 0.0 | 2.0 | 0.00 | 0.00 | 0.00 | 53 | 1022.7 |
| 20260510115555 | 45 | 0 | 0.0 | 2.0 | 0.00 | 0.00 | 0.00 | 51 | 1022.6 |
| 20260510115056 | 45 | 0 | 0.0 | 2.0 | 0.00 | 0.00 | 0.00 | 53 | 1022.7 |
| 20260510114621 | 45 | 0 | 0.0 | 2.0 | 0.00 | 0.00 | 0.00 | 53 | 1022.8 |
| 20260510114056 | 45 | 84 | 0.0 | 1.0 | 0.00 | 0.00 | 0.00 | 53 | 1022.8 |
| 20260510113555 | 45 | 77 | 0.0 | 2.0 | 0.00 | 0.00 | 0.00 | 53 | 1022.9 |
| 20260510113059 | 45 | 0 | 0.0 | 2.0 | 0.00 | 0.00 | 0.00 | 52 | 1023.0 |
| 20260510112557 | 45 | 0 | 0.0 | 3.0 | 0.00 | 0.00 | 0.00 | 54 | 1023.0 |
| 20260510112057 | 45 | 0 | 0.0 | 3.0 | 0.00 | 0.00 | 0.00 | 56 | 1022.9 |
| 20260510111602 | 45 | 74 | 0.0 | 2.0 | 0.00 | 0.00 | 0.00 | 53 | 1022.8 |
| 20260510111057 | 45 | 0 | 0.0 | 3.0 | 0.00 | 0.00 | 0.00 | 55 | 1022.7 |
| 20260510110557 | 45 | 0 | 0.0 | 3.0 | 0.00 | 0.00 | 0.00 | 53 | 1022.7 |
| 20260510105557 | 45 | 0 | 0.0 | 2.0 | 0.00 | 0.00 | 0.00 | 54 | 1022.9 |
| 20260510105056 | 45 | 83 | 0.0 | 2.0 | 0.00 | 0.00 | 0.00 | 55 | 1022.8 |
| 20260510104600 | 46 | 0 | 0.0 | 2.0 | 0.00 | 0.00 | 0.00 | 56 | 1022.9 |
| 20260510104057 | 46 | 85 | 0.0 | 2.0 | 0.00 | 0.00 | 0.00 | 57 | 1022.8 |
| 20260510103557 | 46 | 0 | 0.0 | 2.0 | 0.00 | 0.00 | 0.00 | 50 | 1023.0 |
| 20260510103059 | 46 | 0 | 0.0 | 2.0 | 0.00 | 0.00 | 0.00 | 50 | 1022.9 |
| 20260510102558 | 46 | 84 | 0.0 | 2.0 | 0.00 | 0.00 | 0.00 | 50 | 1023.0 |
| 20260510102059 | 46 | 0 | 0.0 | 1.0 | 0.00 | 0.00 | 0.00 | 49 | 1022.8 |
| 20260510101605 | 46 | 0 | 0.0 | 1.0 | 0.00 | 0.00 | 0.00 | 53 | 1022.8 |
| 20260510101057 | 46 | 0 | 0.0 | 2.0 | 0.00 | 0.00 | 0.00 | 51 | 1022.7 |
| 20260510100557 | 45 | 0 | 0.0 | 2.0 | 0.00 | 0.00 | 0.00 | 49 | 1022.6 |
| 20260510100110 | 45 | 0 | 0.0 | 2.0 | 0.00 | 0.00 | 0.00 | 50 | 1022.6 |
| 20260510095557 | 45 | 92 | 0.0 | 3.0 | 0.00 | 0.00 | 0.00 | 48 | 1022.8 |
| 20260510095058 | 45 | 0 | 0.0 | 3.0 | 0.00 | 0.00 | 0.00 | 50 | 1022.8 |
| 20260510094600 | 46 | 135 | 0.0 | 3.0 | 0.00 | 0.00 | 0.00 | 52 | 1022.8 |
| 20260510094057 | 46 | 0 | 0.0 | 0.0 | 0.00 | 0.00 | 0.00 | 52 | 1022.8 |
| 20260510093557 | 46 | 0 | 0.0 | 0.0 | 0.00 | 0.00 | 0.00 | 53 | 1022.8 |
| 20260510093059 | 47 | 0 | 0.0 | 0.0 | 0.00 | 0.00 | 0.00 | 47 | 1022.7 |
| 20260510092557 | 47 | 0 | 0.0 | 0.0 | 0.00 | 0.00 | 0.00 | 50 | 1022.8 |
| 20260510092058 | 48 | 0 | 0.0 | 0.0 | 0.00 | 0.00 | 0.00 | 44 | 1022.8 |
| 20260510091558 | 48 | 0 | 0.0 | 2.0 | 0.00 | 0.00 | 0.00 | 47 | 1022.7 |
| 20260510091057 | 48 | 0 | 0.0 | 2.0 | 0.00 | 0.00 | 0.00 | 43 | 1022.6 |
| 20260510090557 | 48 | 80 | 0.0 | 2.0 | 0.00 | 0.00 | 0.00 | 42 | 1022.5 |
| 20260510090057 | 48 | 0 | 0.0 | 2.0 | 0.00 | 0.00 | 0.00 | 46 | 1022.5 |
| 20260510085557 | 48 | 84 | 0.0 | 3.0 | 0.00 | 0.00 | 0.00 | 43 | 1022.5 |
| 20260510085059 | 48 | 84 | 1.0 | 3.0 | 0.00 | 0.00 | 0.00 | 43 | 1022.5 |
| 20260510084610 | 48 | 0 | 0.0 | 3.0 | 0.00 | 0.00 | 0.00 | 45 | 1022.5 |
| 20260510084057 | 48 | 87 | 0.0 | 3.0 | 0.00 | 0.00 | 0.00 | 44 | 1022.6 |
| 20260510083559 | 48 | 82 | 0.0 | 3.0 | 0.00 | 0.00 | 0.00 | 44 | 1022.7 |
| 20260510083055 | 48 | 0 | 0.0 | 0.0 | 0.00 | 0.00 | 0.00 | 44 | 1022.7 |
| 20260510082554 | 48 | 0 | 0.0 | 0.0 | 0.00 | 0.00 | 0.00 | 44 | 1022.8 |
| 20260510082055 | 48 | 0 | 0.0 | 0.0 | 0.00 | 0.00 | 0.00 | 47 | 1022.8 |
| 20260510081607 | 48 | 0 | 0.0 | 0.0 | 0.00 | 0.00 | 0.00 | 47 | 1022.9 |
| 20260510081056 | 48 | 0 | 0.0 | 0.0 | 0.00 | 0.00 | 0.00 | 43 | 1022.8 |
| 20260510080555 | 48 | 0 | 0.0 | 0.0 | 0.00 | 0.00 | 0.00 | 45 | 1022.8 |
| 20260510080104 | 49 | 0 | 0.0 | 0.0 | 0.00 | 0.00 | 0.00 | 43 | 1022.9 |
| 20260510075555 | 49 | 0 | 0.0 | 0.0 | 0.00 | 0.00 | 0.00 | 45 | 1022.8 |
| 20260510075055 | 50 | 0 | 0.0 | 0.0 | 0.00 | 0.00 | 0.00 | 44 | 1022.9 |
| 20260510074600 | 50 | 0 | 0.0 | 0.0 | 0.00 | 0.00 | 0.00 | 40 | 1022.8 |
| 20260510074055 | 50 | 0 | 0.0 | 0.0 | 0.00 | 0.00 | 0.00 | 43 | 1022.8 |
| 20260510073555 | 50 | 0 | 0.0 | 0.0 | 0.00 | 0.00 | 0.00 | 42 | 1022.8 |
| 20260510073100 | 50 | 0 | 0.0 | 0.0 | 0.00 | 0.00 | 0.00 | 41 | 1022.9 |
| 20260510072555 | 50 | 0 | 0.0 | 0.0 | 0.00 | 0.00 | 0.00 | 39 | 1022.9 |
| 20260510072054 | 50 | 0 | 0.0 | 4.0 | 0.00 | 0.00 | 0.00 | 39 | 1022.9 |
| 20260510071559 | 50 | 0 | 0.0 | 4.0 | 0.00 | 0.00 | 0.00 | 39 | 1023.0 |
| 20260510071055 | 50 | 91 | 0.0 | 4.0 | 0.00 | 0.00 | 0.00 | 39 | 1023.0 |
| 20260510070556 | 50 | 0 | 0.0 | 0.0 | 0.00 | 0.00 | 0.00 | 39 | 1023.0 |
| 20260510070113 | 50 | 0 | 0.0 | 0.0 | 0.00 | 0.00 | 0.00 | 39 | 1023.0 |
| 20260510065559 | 50 | 0 | 0.0 | 2.0 | 0.00 | 0.00 | 0.00 | 38 | 1023.1 |
| 20260510065055 | 51 | 0 | 0.0 | 2.0 | 0.00 | 0.00 | 0.00 | 38 | 1023.0 |
| 20260510064558 | 51 | 0 | 0.0 | 2.0 | 0.00 | 0.00 | 0.00 | 38 | 1023.0 |
| 20260510064055 | 51 | 0 | 0.0 | 2.0 | 0.00 | 0.00 | 0.00 | 38 | 1023.0 |
| 20260510063555 | 51 | 0 | 0.0 | 2.0 | 0.00 | 0.00 | 0.00 | 38 | 1022.9 |
| 20260510063104 | 51 | 0 | 0.0 | 2.0 | 0.00 | 0.00 | 0.00 | 38 | 1023.0 |
| 20260510062556 | 51 | 80 | 0.0 | 2.0 | 0.00 | 0.00 | 0.00 | 38 | 1023.0 |
| 20260510062055 | 51 | 80 | 0.0 | 2.0 | 0.00 | 0.00 | 0.00 | 38 | 1022.9 |
| 20260510061559 | 51 | 0 | 0.0 | 1.0 | 0.00 | 0.00 | 0.00 | 41 | 1022.9 |
| 20260510061055 | 51 | 0 | 0.0 | 2.0 | 0.00 | 0.00 | 0.00 | 41 | 1022.8 |
| 20260510060556 | 51 | 0 | 0.0 | 2.0 | 0.00 | 0.00 | 0.00 | 39 | 1022.7 |
| 20260510060059 | 52 | 85 | 0.0 | 2.0 | 0.00 | 0.00 | 0.00 | 37 | 1022.8 |
| 20260510055555 | 52 | 84 | 0.0 | 2.0 | 0.00 | 0.00 | 0.00 | 37 | 1022.7 |
| 20260510055058 | 52 | 84 | 0.0 | 2.0 | 0.00 | 0.00 | 0.00 | 36 | 1022.7 |
| 20260510054601 | 52 | 0 | 0.0 | 2.0 | 0.00 | 0.00 | 0.00 | 36 | 1022.7 |
| 20260510054055 | 52 | 0 | 0.0 | 0.0 | 0.00 | 0.00 | 0.00 | 36 | 1022.7 |
| 20260510053555 | 52 | 0 | 0.0 | 0.0 | 0.00 | 0.00 | 0.00 | 37 | 1022.8 |
| 20260510053059 | 52 | 0 | 0.0 | 0.0 | 0.00 | 0.00 | 0.00 | 36 | 1022.8 |
| 20260510052555 | 53 | 0 | 0.0 | 0.0 | 0.00 | 0.00 | 0.00 | 36 | 1022.8 |
| 20260510052055 | 52 | 0 | 0.0 | 0.0 | 0.00 | 0.00 | 0.00 | 35 | 1022.8 |
| 20260510051609 | 52 | 0 | 0.0 | 0.0 | 0.00 | 0.00 | 0.00 | 36 | 1022.8 |
| 20260510051058 | 53 | 0 | 0.0 | 0.0 | 0.00 | 0.00 | 0.00 | 36 | 1022.6 |
| 20260510050603 | 53 | 0 | 0.0 | 0.0 | 0.00 | 0.00 | 0.00 | 38 | 1022.7 |
| 20260510050108 | 53 | 0 | 0.0 | 0.0 | 0.00 | 0.00 | 0.00 | 39 | 1022.7 |
| 20260510045559 | 53 | 0 | 0.0 | 0.0 | 0.00 | 0.00 | 0.00 | 39 | 1022.7 |
| 20260510045057 | 53 | 0 | 0.0 | 0.0 | 0.00 | 0.00 | 0.00 | 39 | 1022.7 |
| 20260510044555 | 53 | 0 | 0.0 | 0.0 | 0.00 | 0.00 | 0.00 | 39 | 1022.7 |
| 20260510044057 | 53 | 0 | 0.0 | 0.0 | 0.00 | 0.00 | 0.00 | 39 | 1022.8 |
| 20260510043558 | 54 | 0 | 0.0 | 0.0 | 0.00 | 0.00 | 0.00 | 39 | 1022.7 |
| 20260510043058 | 54 | 0 | 0.0 | 1.0 | 0.00 | 0.00 | 0.00 | 39 | 1022.7 |
| 20260510042557 | 54 | 0 | 0.0 | 1.0 | 0.00 | 0.00 | 0.00 | 40 | 1022.6 |
| 20260510042057 | 54 | 0 | 0.0 | 1.0 | 0.00 | 0.00 | 0.00 | 40 | 1022.6 |
| 20260510041605 | 54 | 0 | 0.0 | 0.0 | 0.00 | 0.00 | 0.00 | 40 | 1022.5 |
| 20260510041057 | 55 | 0 | 0.0 | 1.0 | 0.00 | 0.00 | 0.00 | 40 | 1022.5 |
| 20260510040557 | 55 | 0 | 0.0 | 1.0 | 0.00 | 0.00 | 0.00 | 40 | 1022.3 |
| 20260510040105 | 55 | 0 | 0.0 | 1.0 | 0.00 | 0.00 | 0.00 | 40 | 1022.2 |
| 20260510035557 | 55 | 0 | 0.0 | 2.0 | 0.00 | 0.00 | 0.00 | 40 | 1022.2 |
| 20260510035100 | 56 | 0 | 0.0 | 2.0 | 0.00 | 0.00 | 0.00 | 41 | 1022.2 |
| 20260510034557 | 56 | 0 | 0.0 | 0.0 | 0.00 | 0.00 | 0.00 | 42 | 1022.1 |
| 20260510034057 | 56 | 0 | 0.0 | 0.0 | 0.00 | 0.00 | 0.00 | 41 | 1022.1 |
| 20260510033557 | 57 | 0 | 0.0 | 0.0 | 0.00 | 0.00 | 0.00 | 41 | 1022.0 |
| 20260510033103 | 57 | 0 | 0.0 | 0.0 | 0.00 | 0.00 | 0.00 | 40 | 1021.9 |
| 20260510032600 | 58 | 0 | 0.0 | 0.0 | 0.00 | 0.00 | 0.00 | 41 | 1021.9 |
| 20260510032057 | 59 | 0 | 0.0 | 0.0 | 0.00 | 0.00 | 0.00 | 40 | 1021.8 |
| 20260510031603 | 59 | 0 | 0.0 | 0.0 | 0.00 | 0.00 | 0.00 | 39 | 1021.7 |
| 20260510031058 | 60 | 0 | 0.0 | 0.0 | 0.00 | 0.00 | 0.00 | 38 | 1021.7 |
| 20260510030600 | 61 | 0 | 0.0 | 0.0 | 0.00 | 0.00 | 0.00 | 37 | 1021.6 |
| 20260510030100 | 62 | 0 | 0.0 | 0.0 | 0.00 | 0.00 | 0.00 | 36 | 1021.4 |
| 20260510025557 | 63 | 0 | 0.0 | 0.0 | 0.00 | 0.00 | 0.00 | 35 | 1021.5 |
| 20260510025100 | 64 | 0 | 0.0 | 0.0 | 0.00 | 0.00 | 0.00 | 34 | 1021.5 |
| 20260510024557 | 64 | 0 | 0.0 | 0.0 | 0.00 | 0.00 | 0.00 | 33 | 1021.5 |
| 20260510024057 | 66 | 0 | 0.0 | 1.0 | 0.00 | 0.00 | 0.00 | 30 | 1021.5 |
| 20260510023557 | 66 | 0 | 0.0 | 1.0 | 0.00 | 0.00 | 0.00 | 30 | 1021.4 |
| 20260510023054 | 67 | 0 | 0.0 | 0.0 | 0.00 | 0.00 | 0.00 | 29 | 1021.4 |
| 20260510022559 | 68 | 0 | 0.0 | 1.0 | 0.00 | 0.00 | 0.00 | 27 | 1021.3 |
| 20260510022057 | 68 | 0 | 0.0 | 1.0 | 0.00 | 0.00 | 0.00 | 26 | 1021.3 |
| 20260510021646 | 69 | 0 | 0.0 | 5.0 | 0.00 | 0.00 | 0.00 | 27 | 1021.3 |
| 20260510021057 | 69 | 0 | 0.0 | 5.0 | 0.00 | 0.00 | 0.00 | 26 | 1021.3 |
| 20260510020557 | 70 | 0 | 0.0 | 5.0 | 0.00 | 0.00 | 0.00 | 25 | 1021.3 |
| 20260510020101 | 70 | 11 | 0.0 | 2.0 | 0.00 | 0.00 | 0.00 | 23 | 1021.3 |
| 20260510015557 | 70 | 0 | 0.0 | 2.0 | 0.00 | 0.00 | 0.00 | 23 | 1021.4 |
| 20260510015058 | 70 | 0 | 0.0 | 3.0 | 0.00 | 0.00 | 0.00 | 25 | 1021.3 |
| 20260510014600 | 70 | 11 | 0.0 | 3.0 | 0.00 | 0.00 | 0.00 | 21 | 1021.3 |
| 20260510014055 | 70 | 0 | 0.0 | 3.0 | 0.00 | 0.00 | 0.00 | 20 | 1021.3 |
| 20260510013556 | 70 | 11 | 1.0 | 3.0 | 0.00 | 0.00 | 0.00 | 26 | 1021.3 |
| 20260510013102 | 70 | 0 | 0.0 | 1.0 | 0.00 | 0.00 | 0.00 | 25 | 1021.4 |
| 20260510012556 | 70 | 0 | 0.0 | 2.0 | 0.00 | 0.00 | 0.00 | 26 | 1021.5 |
| 20260510012055 | 70 | 15 | 0.0 | 2.0 | 0.00 | 0.00 | 0.00 | 26 | 1021.4 |
| 20260510011555 | 70 | 15 | 0.0 | 3.0 | 0.00 | 0.00 | 0.00 | 25 | 1021.5 |
| 20260510011055 | 70 | 0 | 0.0 | 3.0 | 0.00 | 0.00 | 0.00 | 25 | 1021.5 |
| 20260510010557 | 70 | 13 | 0.0 | 3.0 | 0.00 | 0.00 | 0.00 | 27 | 1021.6 |
| 20260510010059 | 71 | 360 | 1.0 | 3.0 | 0.00 | 0.00 | 0.00 | 25 | 1021.5 |
| 20260510005555 | 71 | 13 | 0.0 | 3.0 | 0.00 | 0.00 | 0.00 | 26 | 1021.4 |
| 20260510005055 | 71 | 13 | 1.0 | 3.0 | 0.00 | 0.00 | 0.00 | 25 | 1021.5 |
| 20260510004552 | 72 | 15 | 0.0 | 3.0 | 0.00 | 0.00 | 0.00 | 25 | 1021.5 |
| 20260510004056 | 72 | 13 | 1.0 | 3.0 | 0.00 | 0.00 | 0.00 | 26 | 1021.6 |
| 20260510003555 | 72 | 13 | 1.0 | 3.0 | 0.00 | 0.00 | 0.00 | 27 | 1021.5 |
| 20260510003100 | 73 | 12 | 1.0 | 3.0 | 0.00 | 0.00 | 0.00 | 27 | 1021.5 |
| 20260510002559 | 74 | 13 | 0.0 | 3.0 | 0.00 | 0.00 | 0.00 | 27 | 1021.6 |
| 20260510002055 | 74 | 13 | 0.0 | 3.0 | 0.00 | 0.00 | 0.00 | 27 | 1021.6 |
| 20260510001557 | 74 | 0 | 1.0 | 3.0 | 0.00 | 0.00 | 0.00 | 24 | 1021.5 |
| 20260510001056 | 74 | 15 | 1.0 | 3.0 | 0.00 | 0.00 | 0.00 | 25 | 1021.5 |
| 20260510000558 | 74 | 0 | 1.0 | 4.0 | 0.00 | 0.00 | 0.00 | 26 | 1021.6 |
| 20260510000054 | 73 | 0 | 0.0 | 4.0 | 0.00 | 0.00 | 0.00 | 26 | 1021.6 |
| 20260509235555 | 72 | 15 | 0.0 | 3.0 | 0.00 | 0.00 | 0.00 | 27 | 1021.7 |
| 20260509235056 | 72 | 13 | 1.0 | 3.0 | 0.00 | 0.00 | 0.00 | 27 | 1021.6 |
| 20260509234555 | 73 | 15 | 0.0 | 2.0 | 0.00 | 0.00 | 0.00 | 26 | 1021.7 |
| 20260509234055 | 72 | 14 | 0.0 | 3.0 | 0.00 | 0.00 | 0.00 | 26 | 1021.8 |
| 20260509233555 | 72 | 14 | 1.0 | 3.0 | 0.00 | 0.00 | 0.00 | 25 | 1021.8 |
| 20260509233058 | 72 | 13 | 0.0 | 3.0 | 0.00 | 0.00 | 0.00 | 27 | 1021.8 |
| 20260509232555 | 72 | 15 | 1.0 | 3.0 | 0.00 | 0.00 | 0.00 | 26 | 1021.8 |
| 20260509232055 | 72 | 13 | 1.0 | 4.0 | 0.00 | 0.00 | 0.00 | 28 | 1021.8 |
| 20260509231558 | 72 | 16 | 0.0 | 4.0 | 0.00 | 0.00 | 0.00 | 29 | 1021.9 |